915  
ASUS42 KRAH 241910  
RWRRAH  
NORTH CAROLINA WEATHER ROUNDUP  
NATIONAL WEATHER SERVICE RALEIGH NC  
300 PM EDT SUN MAR 24 2019  
 
NOTE: "FAIR" INDICATES FEW OR NO CLOUDS BELOW 12,000 FEET WITH NO  
SIGNIFICANT WEATHER AND/OR S TO VISIBILITY
.  
 
NCZ001-053-055-056-065-067-242000-  
WESTERN NORTH CAROLINA  
 
CITY SKY/WX TMP DP RH WIND PRES REMARKS
 
ASHEVILLE FAIR 69 30 23 S20 30.19F  
JEFFERSON FAIR 61 26 26 SE5 30.17F  
MORGANTON FAIR 73 30 20 SW10G16 30.21F  
HICKORY FAIR 68 35 29 S15G22 30.18F  
WILKESBORO NOT AVBL  
RUTHERFORDTON FAIR 70 36 28 S17G26 30.20F  
MOUNT AIRY FAIR 68 29 23 S6G18 30.19F  
BOONE FAIR 63 24 22 S9 30.20F  

 
 
NCZ021-022-025-041-071-084-088-242000-  
CENTRAL NORTH CAROLINA  
 
CITY SKY/WX TMP DP RH WIND PRES REMARKS
 
CHARLOTTE PTSUNNY 70 39 32 SW12 30.22F  
GREENSBORO PTSUNNY 69 33 26 SW15G22 30.18F  
WINSTON-SALEM FAIR 68 33 27 SW14G22 30.19F  
RALEIGH-DURHAM FAIR 69 29 22 SW17 30.22F  
FORT BRAGG NOT AVBL  
FAYETTEVILLE FAIR 71 23 16 SW14 30.24F  
BURLINGTON FAIR 73 27 18 S12G21 30.19F  
ROXBORO FAIR 68 30 24 S13 30.21F  
HENDERSON FAIR 66 25 21 S14G22 30.20F  
LOUISBURG FAIR 68 28 22 S12G18 30.24F  
LAURINBURG FAIR 70 32 24 VRB7G20 30.25F  

 
 
NCZ011-015-027-028-043-044-047-080-103-242000-  
NORTHEASTERN NORTH CAROLINA  
 
CITY SKY/WX TMP DP RH WIND PRES REMARKS
 
ROCKY MT-WILSO FAIR 70 29 21 SW12 30.24F  
GREENVILLE FAIR 70 27 19 W9 30.25F  
WASHINGTON FAIR 69 27 20 S9G20 30.26F  
ELIZABETH CITY FAIR 66 31 27 S8 30.25F  
MANTEO FAIR 58 33 38 S15 30.27F  
CAPE HATTERAS FAIR 65 30 27 SW9 30.29F  

 
 
NCZ078-087-090-091-093-098-101-242000-  
SOUTHEASTERN NORTH CAROLINA  
 
CITY SKY/WX TMP DP RH WIND PRES REMARKS
 
GOLDSBORO NOT AVBL  
KINSTON SUNNY 72 25 17 SW8G16 30.26F  
KENANSVILLE FAIR 70 27 19 SW12G17 30.26F  
NEW BERN FAIR 69 30 23 SW10G18 30.28F  
CHERRY POINT FAIR 68 33 27 S15G21 30.29F  
BEAUFORT FAIR 65 34 31 SW13 30.30F  
JACKSONVILLE FAIR 68 25 19 S10 30.28F  
WILMINGTON FAIR 69 28 21 S15 30.28F  

 
 
 
 
CLICK HERE TO GO TO PREVIOUS BULLETINS.

The Nexlab NC Page Main Text Page